Parcialmente nublado
Nublado
Mayormente nublado
Mayormente nublado
Mayormente nublado
Nublado con lluvia ligera
Nublado con lluvia ligera
(°C)
(°C)
-1°
-1°
-1°
-1°
-1°
OSO
OSO
OSO
OSO
OSO
OSO
OSO
(km/h)
13-20
14-21
15-26
17-27
18-28
18-28
18-29
(mm)
0
0
0
0
0
0.2
0.5
(%)
35
11
25
17
23
46
57

Elevación del sol

/ -5.5°
sun-icon
UV 1
06:01
20:38
Luna llena (186°)
21:39
06:00

METAR a Bordenau (ETNW)

Hora Condiciones Temperatura/
Punto de condensación
Viento Visibilidad Tiempo Nubes Presión Cambiar Bruto
VFR 4°C / 3°C 250º 7kt 9700m - Few Clouds 1000ft
Broken Clouds 6000ft
1008 - ETNW 240220Z 25007KT 9999 FEW010 BKN060 04/03 Q1008 BLU
VFR 4°C / 3°C 250º 8kt 9700m - Few Clouds 1100ft
Broken Clouds 6000ft
1008 - ETNW 240120Z 25008KT 9999 FEW011 BKN060 04/03 Q1008 BLU
VFR 4°C / 3°C 240º 9kt 9700m - Few Clouds 1000ft
Broken Clouds 4500ft
1009 - ETNW 240050Z 24009KT 9999 FEW010 BKN045 04/03 Q1009 BLU
MVFR 4°C / 3°C 240º 9kt 9700m Light Drizzle Light Rain 0.20mm precipitation Scattered Clouds 1000ft
Broken Clouds 1800ft
1009 - ETNW 240020Z 24009KT 9999 -DZRA SCT010 BKN018 04/03 Q1009 WHT
MVFR 4°C / 3°C 230º 9kt 6000m Light Drizzle Light Rain 0.20mm precipitation Few Clouds 800ft
Broken Clouds 1400ft
1009 - ETNW 240000Z 23009KT 6000 -DZRA FEW008 BKN014 04/03 Q1009 GRN
MVFR 4°C / 3°C 230º 10kt 9700m Light Rain Light Drizzle 0.20mm precipitation Broken Clouds 1800ft 1010 - ETNW 232320Z 23010KT 9999 -RADZ BKN018 04/03 Q1010 WHT
MVFR 5°C / 3°C 230º 9kt 8000m Light Rain Light Drizzle 0.20mm precipitation Broken Clouds 2300ft 1010 - ETNW 232300Z 23009KT 8000 -RADZ BKN023 05/03 Q1010 WHT
MVFR 5°C / 2°C 240º 6kt 9700m Light Rain 1.00mm precipitation Broken Clouds 3000ft 1011 - ETNW 232220Z 24006KT 9999 -RA BKN030 05/02 Q1011 BLU
VFR 7°C / 1°C 270º 11kt 9700m Light Rain 1.00mm precipitation Few Clouds 2700ft
Broken Clouds 4000ft
1011 - ETNW 232120Z 27011KT 9999 -RA FEW027 BKN040 07/01 Q1011 BLU
VFR 7°C / -1°C 260º 7kt 9700m - Few Clouds 2000ft
Scattered Clouds 3000ft
Broken Clouds 5000ft
1012 - ETNW 232020Z 26007KT 9999 FEW020 SCT030 BKN050 07/M01 Q1012 BLU
VFR 8°C / -2°C 200º 6kt 9700m - Broken Clouds 6500ft 1012 - ETNW 231920Z 20006KT 9999 BKN065 08/M02 Q1012 BLU
VFR 8°C / -2°C 200º 5kt 9700m - Broken Clouds 6500ft 1012 - ETNW 231905Z 20005KT 9999 BKN065 08/M02 Q1012 BLU FCST CNL
VFR 8°C / -2°C 230º 6kt 9700m - Few Clouds 6000ft
Scattered Clouds 7000ft
Broken Clouds 12000ft
1013 Temporary: blowing . ETNW 231820Z 23006KT 9999 FEW060 SCT070 BKN120 08/M02 Q1013 BLU BLU+ TEMPO BLU
VFR 8°C / -2°C 230º 7kt 9700m - Few Clouds 4000ft
Scattered Clouds 6500ft
Broken Clouds 12000ft
1013 Temporary: blowing . ETNW 231720Z 23007KT 9999 FEW040 SCT065 BKN120 08/M02 Q1013 BLU BLU+ TEMPO BLU
VFR 9°C / -3°C 240º 8kt 9700m - Few Clouds 4000ft
Broken Clouds 6500ft
1014 Temporary: blowing . ETNW 231620Z 24008KT 9999 FEW040 BKN065 09/M03 Q1014 BLU BLU+ TEMPO BLU
VFR 9°C / -2°C 260º 7kt 9700m - Few Clouds 4000ft
Broken Clouds 6500ft
1015 Temporary: blowing . ETNW 231520Z 26007KT 9999 FEW040 BKN065 09/M02 Q1015 BLU BLU+ TEMPO BLU
VFR 9°C / -2°C 280º 9kt 9700m - Few Clouds 4000ft
Broken Clouds 6500ft
1016 Temporary: blowing . ETNW 231420Z 28009KT 9999 FEW040 BKN065 09/M02 Q1016 BLU BLU+ TEMPO BLU
VFR 9°C / -3°C 280º 5kt 9700m - Few Clouds 4000ft
Broken Clouds 7000ft
1017 Temporary: blowing . ETNW 231320Z 28005KT 9999 FEW040 BKN070 09/M03 Q1017 BLU BLU+ TEMPO BLU
VFR 8°C / -2°C 260º 4kt 9700m - Few Clouds 4000ft
Broken Clouds 6000ft
1018 Temporary: blowing . ETNW 231220Z 26004KT 9999 FEW040 BKN060 08/M02 Q1018 BLU BLU+ TEMPO BLU
VFR 8°C / -2°C 260º 4kt 9700m - Few Clouds 4000ft
Broken Clouds 6000ft
1018 Temporary: blowing . ETNW 231120Z 26004KT 9999 FEW040 BKN060 08/M02 Q1018 BLU BLU+ TEMPO BLU
VFR 8°C / -2°C 310º 4kt 9700m - Broken Clouds 3700ft 1019 Temporary: blowing . ETNW 231020Z 31004KT 9999 BKN037 08/M02 Q1019 BLU BLU+ TEMPO BLU
VFR 8°C / -1°C 310º 3kt 9700m - Scattered Clouds 3600ft 1020 - ETNW 230920Z 31003KT 9999 SCT036 08/M01 Q1020 BLU+BLU+
VFR 7°C / 0°C 150º 2kt 9700m - Scattered Clouds 2800ft 1020 - ETNW 230820Z 15002KT 9999 SCT028 07/00 Q1020 BLU+BLU+
VFR 5°C / 1°C 3kt 9700m - Few Clouds 2000ft 1021 - ETNW 230720Z VRB03KT 9999 FEW020 05/01 Q1021 BLU+BLU+

VFR

4°C / 3°C

[Más]
Viento 250º 7kt
Visibilidad 9700m
Tiempo -
Nubes Few Clouds 1000ft
Broken Clouds 6000ft
Presión 1008
Cambiar -
Bruto ETNW 240220Z 25007KT 9999 FEW010 BKN060 04/03 Q1008 BLU

VFR

4°C / 3°C

[Más]
Viento 250º 8kt
Visibilidad 9700m
Tiempo -
Nubes Few Clouds 1100ft
Broken Clouds 6000ft
Presión 1008
Cambiar -
Bruto ETNW 240120Z 25008KT 9999 FEW011 BKN060 04/03 Q1008 BLU

VFR

4°C / 3°C

[Más]
Viento 240º 9kt
Visibilidad 9700m
Tiempo -
Nubes Few Clouds 1000ft
Broken Clouds 4500ft
Presión 1009
Cambiar -
Bruto ETNW 240050Z 24009KT 9999 FEW010 BKN045 04/03 Q1009 BLU

MVFR

4°C / 3°C

[Más]
Viento 240º 9kt
Visibilidad 9700m
Tiempo Light Drizzle Light Rain 0.20mm precipitation
Nubes Scattered Clouds 1000ft
Broken Clouds 1800ft
Presión 1009
Cambiar -
Bruto ETNW 240020Z 24009KT 9999 -DZRA SCT010 BKN018 04/03 Q1009 WHT

MVFR

4°C / 3°C

[Más]
Viento 230º 9kt
Visibilidad 6000m
Tiempo Light Drizzle Light Rain 0.20mm precipitation
Nubes Few Clouds 800ft
Broken Clouds 1400ft
Presión 1009
Cambiar -
Bruto ETNW 240000Z 23009KT 6000 -DZRA FEW008 BKN014 04/03 Q1009 GRN

MVFR

4°C / 3°C

[Más]
Viento 230º 10kt
Visibilidad 9700m
Tiempo Light Rain Light Drizzle 0.20mm precipitation
Nubes Broken Clouds 1800ft
Presión 1010
Cambiar -
Bruto ETNW 232320Z 23010KT 9999 -RADZ BKN018 04/03 Q1010 WHT

MVFR

5°C / 3°C

[Más]
Viento 230º 9kt
Visibilidad 8000m
Tiempo Light Rain Light Drizzle 0.20mm precipitation
Nubes Broken Clouds 2300ft
Presión 1010
Cambiar -
Bruto ETNW 232300Z 23009KT 8000 -RADZ BKN023 05/03 Q1010 WHT

MVFR

5°C / 2°C

[Más]
Viento 240º 6kt
Visibilidad 9700m
Tiempo Light Rain 1.00mm precipitation
Nubes Broken Clouds 3000ft
Presión 1011
Cambiar -
Bruto ETNW 232220Z 24006KT 9999 -RA BKN030 05/02 Q1011 BLU

VFR

7°C / 1°C

[Más]
Viento 270º 11kt
Visibilidad 9700m
Tiempo Light Rain 1.00mm precipitation
Nubes Few Clouds 2700ft
Broken Clouds 4000ft
Presión 1011
Cambiar -
Bruto ETNW 232120Z 27011KT 9999 -RA FEW027 BKN040 07/01 Q1011 BLU

VFR

7°C / -1°C

[Más]
Viento 260º 7kt
Visibilidad 9700m
Tiempo -
Nubes Few Clouds 2000ft
Scattered Clouds 3000ft
Broken Clouds 5000ft
Presión 1012
Cambiar -
Bruto ETNW 232020Z 26007KT 9999 FEW020 SCT030 BKN050 07/M01 Q1012 BLU

VFR

8°C / -2°C

[Más]
Viento 200º 6kt
Visibilidad 9700m
Tiempo -
Nubes Broken Clouds 6500ft
Presión 1012
Cambiar -
Bruto ETNW 231920Z 20006KT 9999 BKN065 08/M02 Q1012 BLU

VFR

8°C / -2°C

[Más]
Viento 200º 5kt
Visibilidad 9700m
Tiempo -
Nubes Broken Clouds 6500ft
Presión 1012
Cambiar -
Bruto ETNW 231905Z 20005KT 9999 BKN065 08/M02 Q1012 BLU FCST CNL

VFR

8°C / -2°C

[Más]
Viento 230º 6kt
Visibilidad 9700m
Tiempo -
Nubes Few Clouds 6000ft
Scattered Clouds 7000ft
Broken Clouds 12000ft
Presión 1013
Cambiar Temporary: blowing .
Bruto ETNW 231820Z 23006KT 9999 FEW060 SCT070 BKN120 08/M02 Q1013 BLU BLU+ TEMPO BLU

VFR

8°C / -2°C

[Más]
Viento 230º 7kt
Visibilidad 9700m
Tiempo -
Nubes Few Clouds 4000ft
Scattered Clouds 6500ft
Broken Clouds 12000ft
Presión 1013
Cambiar Temporary: blowing .
Bruto ETNW 231720Z 23007KT 9999 FEW040 SCT065 BKN120 08/M02 Q1013 BLU BLU+ TEMPO BLU

VFR

9°C / -3°C

[Más]
Viento 240º 8kt
Visibilidad 9700m
Tiempo -
Nubes Few Clouds 4000ft
Broken Clouds 6500ft
Presión 1014
Cambiar Temporary: blowing .
Bruto ETNW 231620Z 24008KT 9999 FEW040 BKN065 09/M03 Q1014 BLU BLU+ TEMPO BLU

VFR

9°C / -2°C

[Más]
Viento 260º 7kt
Visibilidad 9700m
Tiempo -
Nubes Few Clouds 4000ft
Broken Clouds 6500ft
Presión 1015
Cambiar Temporary: blowing .
Bruto ETNW 231520Z 26007KT 9999 FEW040 BKN065 09/M02 Q1015 BLU BLU+ TEMPO BLU

VFR

9°C / -2°C

[Más]
Viento 280º 9kt
Visibilidad 9700m
Tiempo -
Nubes Few Clouds 4000ft
Broken Clouds 6500ft
Presión 1016
Cambiar Temporary: blowing .
Bruto ETNW 231420Z 28009KT 9999 FEW040 BKN065 09/M02 Q1016 BLU BLU+ TEMPO BLU

VFR

9°C / -3°C

[Más]
Viento 280º 5kt
Visibilidad 9700m
Tiempo -
Nubes Few Clouds 4000ft
Broken Clouds 7000ft
Presión 1017
Cambiar Temporary: blowing .
Bruto ETNW 231320Z 28005KT 9999 FEW040 BKN070 09/M03 Q1017 BLU BLU+ TEMPO BLU

VFR

8°C / -2°C

[Más]
Viento 260º 4kt
Visibilidad 9700m
Tiempo -
Nubes Few Clouds 4000ft
Broken Clouds 6000ft
Presión 1018
Cambiar Temporary: blowing .
Bruto ETNW 231220Z 26004KT 9999 FEW040 BKN060 08/M02 Q1018 BLU BLU+ TEMPO BLU

VFR

8°C / -2°C

[Más]
Viento 260º 4kt
Visibilidad 9700m
Tiempo -
Nubes Few Clouds 4000ft
Broken Clouds 6000ft
Presión 1018
Cambiar Temporary: blowing .
Bruto ETNW 231120Z 26004KT 9999 FEW040 BKN060 08/M02 Q1018 BLU BLU+ TEMPO BLU

VFR

8°C / -2°C

[Más]
Viento 310º 4kt
Visibilidad 9700m
Tiempo -
Nubes Broken Clouds 3700ft
Presión 1019
Cambiar Temporary: blowing .
Bruto ETNW 231020Z 31004KT 9999 BKN037 08/M02 Q1019 BLU BLU+ TEMPO BLU

VFR

8°C / -1°C

[Más]
Viento 310º 3kt
Visibilidad 9700m
Tiempo -
Nubes Scattered Clouds 3600ft
Presión 1020
Cambiar -
Bruto ETNW 230920Z 31003KT 9999 SCT036 08/M01 Q1020 BLU+BLU+

VFR

7°C / 0°C

[Más]
Viento 150º 2kt
Visibilidad 9700m
Tiempo -
Nubes Scattered Clouds 2800ft
Presión 1020
Cambiar -
Bruto ETNW 230820Z 15002KT 9999 SCT028 07/00 Q1020 BLU+BLU+

VFR

5°C / 1°C

[Más]
Viento 3kt
Visibilidad 9700m
Tiempo -
Nubes Few Clouds 2000ft
Presión 1021
Cambiar -
Bruto ETNW 230720Z VRB03KT 9999 FEW020 05/01 Q1021 BLU+BLU+

TAF a Bordenau (ETNW)

From till


From till Wind 240º 8kt. Visibility 9700m. Scattered Clouds 1500ft. Broken Clouds 3000ft.
Temporarly from till Wind 250º 10kt. Visibility 4000m. Light Rain . Broken Clouds 1000ft.
Temporarly from till Wind 260º 10kt. Gust 20kt. Visibility 4000m. Showers Rain . Broken Clouds 1500ft.

Bruto: TAF ETNW 232203Z 2323/2423 24008KT 9999 NSW SCT015 BKN030 TEMPO 2323/2411 25010KT 4000 -RA BKN010 TEMPO 2411/2418 26010G20KT 4000 SHRA BKN015CB

rainNOW: Previsión de lluvia para Bordenau y alrededores (25km de radio)

0.0 mm
0.0 mm
0.0 mm
0.0 mm
0.0 mm
0.0 mm
0.0 mm
0.0 mm
0.0 mm
0.0 mm
0.0 mm
0.0 mm

Radar y precipitación nowcast para Bordenau

llovizna
Leve
Moderado
Fuerte
Muy fuerte
Granizo

El marcador del lugar se coloca en Bordenau. Esta animación muestra el radar de precipitación para el intervalo de tiempo seleccionado, así como una previsión de 2h. Las cruces naranjas indican rayos. Datos proporcionados por nowcast.de (disponibles en EE.UU., Europa y Australia). La llovizna o una ligera nevada pueden ser invisibles para el radar. La intensidad de la precipitación está codificada por colores, del turquesa al rojo.

Imágenes actuales de satélite y lluvia para Bordenau, Alemania

El marcador del lugar se coloca en Bordenau. [Más]

La imagen de satélite en tiempo real se aprovecha de la combinación de bandas de la luz visible y de la luz infrarroja. Cómo se pueden detectar cambios de temperaturas a través de la banda infrarrojo, la imagen no aparece oscura de noche. No obstante, la niebla y las nubes bajas son apenas visibles en las imágenes de infrarrojo ya que las diferencias de temperaturas entre el suelo y la niebla son muy pequeñas, por eso, son casi invisibles durante la noche. Las imágenes de satélite del Meteosat (Europa) son actualizados en tiempo real cada 5 minutos. Las imágenes del GOES-16/GOES-17 (América del Norte y América del Sur) y Himawari (Asia) son actualizadas cada 10 minutos.

La precipitación se estima a partir del radar y de los satélites. Las estimaciones de la precipitación desde los satélites son menos precisas durante la noche que durante el día.

© 2024 meteoblue, NOAA Satellites GOES-16 and EUMETSAT. Datos de relámpagos proporcionados por nowcast.

Volver al principio
×
Hola,
parece que está usando un bloqueador de anuncios.

La publicidad es esencial para mantener nuestro sitio web gratuito con detalle y precisión únicos.

Por favor, incluya www.meteoblue.com en la lista blanca de su bloqueador de anuncios o considere comprar uno de nuestros productos:

¿Ya hay subscripción?
Entonces, por favor, iniciar sesión.